Flag for India Weather past 2 weeks in Virudhunagar, Tamil Nadu, India

Now
95 °F

Passing clouds.


Feels Like: 105 °F
Forecast: 78 / 101 °F
Wind: 5 mph from West

Location: Tiruchchirapalli

Current Time: May 23, 2015 at 7:12:55 PM

Latest Report: May 23, 2015 at 6:40 PM


Visibility: 4 mi

Pressure: 29.71 "Hg

Humidity: 50%

Dew point: 73 °F

Location of VirudhunagarLocation

Historic Weather in Virudhunagar — Graph

°F

Virudhunagar temperature yesterday

Maximum temperature yesterday: 99 °F (at 2:40 PM)
Minimum temperature yesterday: 82 °F (at 3:10 AM)
Average temperature yesterday: 90 °F

Past Weeks' High & Low Weather Summary

 TemperatureHumidityPressure
High100 °F (May 9, 2:40 PM)100% (May 12, 5:40 PM)29.83 "Hg (May 12, 5:40 PM)
Low75 °F (May 13, 5:40 AM)42% (May 8, 5:40 PM)29.62 "Hg (May 9, 3:40 PM)
Average86 °F75%29.74 "Hg
* Reported May 8 5:40 PM — May 23 5:40 PM, Virudhunagar, Weather by CustomWeather, © 2015

Note: Actual official high and low records may vary slightly from our data, if they occured in-between our weather recording intervals... More about our weather records

Advertising

Virudhunagar weather history for previous 24 hours

 ConditionsComfort  
Time TempWeatherWind HumidityBarometerVisibility
5:40 PM
Sat, May 23
97 °FPassing clouds.8 mph47%29.68 "Hg4 mi
5:10 PM99 °FPassing clouds.9 mph47%29.68 "Hg5 mi
4:40 PM99 °FPassing clouds.12 mph47%29.68 "Hg5 mi
4:10 PM99 °FPassing clouds.13 mph47%29.68 "Hg5 mi
3:40 PM99 °FPassing clouds.9 mph47%29.68 "Hg5 mi
3:10 PM99 °FPassing clouds.9 mph47%29.68 "Hg5 mi
2:40 PM97 °FPassing clouds.12 mph50%29.71 "Hg5 mi
2:10 PM97 °FPassing clouds.9 mph53%29.71 "Hg5 mi
1:40 PM95 °FScattered clouds.9 mph56%29.71 "Hg5 mi
1:10 PM95 °FPassing clouds.12 mph56%29.74 "Hg5 mi
12:40 PM95 °FPassing clouds.12 mph56%29.74 "Hg5 mi
12:10 PM93 °FPassing clouds.12 mph59%29.77 "Hg5 mi
11:10 AM91 °FPassing clouds.13 mph56%29.77 "Hg4 mi
10:40 AM91 °FPassing clouds.12 mph56%29.77 "Hg4 mi
10:10 AM90 °FPassing clouds.14 mph59%29.80 "Hg4 mi
9:40 AM90 °FPassing clouds.12 mph59%29.80 "Hg4 mi
8:40 AM86 °FHaze.7 mph66%29.80 "Hg2 mi
8:10 AM86 °FHaze.6 mph70%29.77 "Hg2 mi
7:40 AM84 °FFog.6 mph74%29.77 "Hg2 mi
7:10 AM82 °FFog.6 mph79%29.77 "Hg2 mi
6:40 AM82 °FFog.6 mph79%29.77 "Hg2 mi
6:10 AM82 °FFog.3 mph79%29.74 "Hg2 mi
5:40 AM82 °FFog.3 mph79%29.74 "Hg2 mi
5:10 AM84 °FFog.5 mph89%29.74 "Hg3 mi
4:40 AM84 °FFog.5 mph89%29.71 "Hg3 mi
4:10 AM84 °FFog.5 mph89%29.71 "Hg3 mi
3:40 AM84 °FFog.3 mph89%29.71 "Hg3 mi
3:10 AM84 °FFog.3 mph89%29.71 "Hg3 mi
2:40 AM84 °FFog.3 mph89%29.74 "Hg3 mi
2:10 AM84 °FFog.5 mph84%29.74 "Hg3 mi
1:40 AM84 °FFog.5 mph84%29.74 "Hg3 mi
1:10 AM84 °FFog.5 mph84%29.74 "Hg3 mi
12:40 AM86 °FFog.3 mph79%29.77 "Hg3 mi
12:10 AM86 °FFog.3 mph79%29.77 "Hg3 mi
11:10 PM
Fri, May 22
88 °FPassing clouds.5 mph70%29.77 "Hg4 mi
10:40 PM88 °FPassing clouds.6 mph70%29.77 "Hg4 mi
10:10 PM88 °FPassing clouds.6 mph70%29.77 "Hg4 mi
9:40 PM90 °FPassing clouds.2 mph67%29.77 "Hg4 mi
9:10 PM90 °FPassing clouds.3 mph67%29.77 "Hg4 mi
8:40 PM90 °FPassing clouds.3 mph67%29.74 "Hg4 mi
8:10 PM90 °FPassing clouds.3 mph63%29.74 "Hg4 mi
7:40 PM91 °FPassing clouds.5 mph59%29.71 "Hg4 mi
7:10 PM93 °FPassing clouds.5 mph59%29.71 "Hg4 mi
Weather by CustomWeather, © 2015

See weather overviewHow to use our weather pages